Volver al catálogo

BREEZE-M DEB

TANK

ActivoHEO
NORAD 31103·DEBRIS·🇷🇺 Russia

Lanzado Apr 9, 2007 desde Baikonur Cosmodrome

Loading…

Próximos Pases (próximas 24 horas)

TLE

ActualizadoSource: Space-Track

Época: Sep 14, 2026, 21:05 UTC

1 31103U 07009B   26257.87859266  .00009547  00000-0  13379-2 0  9997
2 31103  49.4564  48.6516 5415179 160.4187 233.1385  4.96075947335660

Sigue BREEZE-M DEB en tiempo real con AllMySat

Download on the App Store